Location: La Comballaz
(46.3780°N, 7.0817°E)
Time: 09:00:23
(UTC+00:00)

Daily predictions for brighter satellites

Satellite Brightness Start Highest point End
(mag) Time Altitude Azimuth Time Altitude Azimuth Time Altitude Azimuth
Meteor 1-16 Rocket 4.2 18:32:42 10° S 18:38:01 60° E 18:43:32 10° NNE
Cosmos 614 Rocket 4.2 18:33:16 10° S 18:38:17 48° ESE 18:43:17 10° NNE
APEX 4.4 18:32:04 10° NNW 18:38:33 61° ENE 18:43:47 10° SE
CZ-2C R/B 3.1 18:34:13 10° SE 18:38:52 49° ENE 18:43:26 10° N
STARLINK-29 3.5 18:39:31 10° SSW 18:42:31 39° SE 18:45:33 10° ENE
Cosmos 1190 Rocket 4.5 18:39:29 10° S 18:44:21 39° ESE 18:49:14 10° NE
Aureole 1 Rocket 4.2 18:38:11 10° S 18:45:23 54° ESE 18:51:03 10° NNE
SJ-6B 3.5 18:41:32 10° SE 18:45:23 40° ENE 18:49:16 10° N
IRIDIUM 104 4.3 18:40:51 10° N 18:46:07 79° E 18:51:19 10° S
Cosmos 1300 4.4 18:44:44 10° ESE 18:46:54 15° E 18:49:05 10° NE
BREEZE-M DEB (TANK) 3.9 18:39:49 10° WNW 18:47:43 76° NNE 18:50:42 10° ESE
STARLINK-60 3.0 18:46:47 10° WSW 18:50:03 86° NW 18:53:22 10° ENE
Cosmos 2369 Rocket 3.6 18:45:26 10° NW 18:50:42 40° WSW 18:55:55 10° S
ARGOS Delta rocket 4.3 18:46:24 10° S 18:51:46 83° W 18:57:18 10° NNW
CZ-2C R/B 4.5 18:51:01 10° NNE 18:55:12 31° E 18:59:17 10° SSE
IRIDIUM 114 4.4 18:50:01 10° N 18:55:16 86° W 19:00:29 10° S
Cosmos 2058 Rocket 3.6 18:54:55 10° SSE 18:59:08 40° E 19:03:21 10° NNE
Cosmos 1726 Rocket 3.5 18:57:22 10° S 19:01:44 66° E 19:06:10 10° NNE
SL-08 RB Rocket 3.9 18:57:56 10° SSE 19:02:23 54° ENE 19:06:54 10° N
STARLINK-1228 2.7 19:00:17 10° WNW 19:03:14 73° NNE 19:05:31 15° ESE
Cosmos 1461 3.1 18:58:48 10° NW 19:03:21 78° NE 19:08:01 10° SE
Cosmos 921 Rocket 3.3 19:01:48 10° N 19:05:52 47° ENE 19:09:43 11° SE
Cosmos 1703 3.3 19:02:20 10° N 19:06:20 89° W 19:10:18 10° S
Cosmos 1726 3.1 19:02:49 10° SSW 19:06:28 51° WNW 19:10:08 10° N
SL-4 R/B 2.2 19:03:17 10° W 19:06:37 53° NNW 19:10:00 10° ENE
Meteor 2-17 Rocket 4.5 19:00:50 10° N 19:06:59 70° E 19:13:07 10° SSE
Cosmos 1437 4.5 19:05:45 10° NNW 19:08:31 33° W 19:11:15 10° SSW
Cosmos 2184 Rocket 4.2 19:02:33 10° NNW 19:08:51 76° W 19:15:02 10° S
CZ-4C R/B 4.4 19:04:10 10° NNW 19:09:15 23° NNE 19:14:59 10° ENE
Cosmos 1825 Rocket 4.0 19:05:19 10° NNW 19:09:40 63° W 19:13:57 10° S
Cosmos 407 Rocket 3.4 19:04:44 10° SSW 19:09:52 75° ESE 19:15:00 10° NNE
Cosmos 1908 3.2 19:06:19 10° S 19:10:10 83° E 19:14:06 10° N
Cosmos 1340 Rocket 2.9 19:06:42 10° S 19:10:38 53° E 19:14:35 10° NNE
STARLINK-1246 4.4 19:06:50 10° NW 19:10:49 43° NNE 19:14:15 13° E
FREGAT/IRIS 2.6 19:08:30 10° S 19:11:11 67° WSW 19:13:54 10° NNW
STARLINK-1201 3.2 19:09:03 10° NW 19:12:17 59° NNE 19:14:33 18° ESE
Cosmos 1656 Rocket 4.4 19:07:06 10° NW 19:12:36 55° WSW 19:18:01 10° S
Cosmos 2228 3.1 19:08:20 10° S 19:12:39 81° W 19:17:02 10° N
Cosmos 1328 3.9 19:09:01 10° NNW 19:13:03 78° W 19:17:02 10° S
Cosmos 676 Rocket 4.4 19:08:36 10° S 19:13:32 42° ESE 19:18:28 10° NE
STARLINK-1224 4.4 19:11:51 10° NW 19:15:51 44° NNE 19:19:04 15° E
Cosmos 1943 4.4 19:11:32 10° SW 19:17:00 47° WNW 19:22:31 10° NNE
STARLINK-1203 4.3 19:13:59 10° NW 19:18:04 48° NNE 19:21:13 16° E
MOS 1 4.4 19:12:46 10° SSE 19:18:25 80° WSW 19:24:08 10° NNW
MetOp-A 4.2 19:14:03 10° SSE 19:19:18 60° ENE 19:24:35 10° N
Cosmos 2058 4.4 19:16:43 10° NNE 19:19:46 20° ENE 19:21:10 17° E
Resurs 01 Rocket 2.3 19:17:44 16° SE 19:20:45 36° ENE 19:24:47 10° N
STARLINK-1225 4.3 19:16:50 10° NW 19:20:51 46° NNE 19:23:51 17° E
STARLINK-52 2.8 19:19:39 10° SW 19:22:50 78° SSE 19:25:57 11° ENE
MOS 1 Rocket 4.0 19:17:49 10° NNE 19:23:01 44° E 19:28:10 10° SSE
CZ-2C R/B 3.0 19:19:27 10° NNE 19:24:20 40° E 19:29:13 10° SSE
Nadezhda 1 Rocket 4.1 19:18:32 10° S 19:24:56 89° W 19:31:19 10° N
BREEZE M DEB (TANK) 3.2 19:22:43 10° SSW 19:25:35 37° SE 19:32:23 10° ENE
STARLINK-1230 4.2 19:21:48 10° NW 19:25:51 48° NNE 19:28:37 18° E
Cosmos 962 Rocket 4.5 19:21:52 10° N 19:27:58 63° ENE 19:34:01 10° SSE
SPOT 3 Rocket 3.5 19:23:11 10° SSE 19:28:23 76° ENE 19:33:36 10° NNW
Cosmos 1023 Rocket 4.4 19:23:38 10° SSW 19:28:48 83° ESE 19:33:58 10° NNE
SL-24 R/B - RUBIN 2 4.4 19:23:47 10° SW 19:29:25 80° NW 19:35:49 10° NE
Cosmos 1697 Rocket 4.4 19:25:36 10° N 19:29:35 19° NE 19:32:44 13° E
ARGOS 3.6 19:24:32 10° S 19:29:52 65° WSW 19:35:15 10° NNW
SL-8 Rocket 4.4 19:24:29 10° N 19:30:33 46° ENE 19:35:13 17° SE
STARLINK-1243 4.1 19:26:47 10° NW 19:30:49 51° NNE 19:33:24 21° E
FALCON 9 DEB 3.1 19:27:41 10° WSW 19:31:11 90° SE 19:34:33 11° ENE
Cosmos 2154 Rocket 4.2 19:25:30 10° N 19:31:53 79° W 19:38:11 10° S
Cosmos 1953 Rocket 4.4 19:28:20 10° NNW 19:32:44 54° W 19:37:06 10° S
NOSS 3-4 (A) 4.3 19:28:02 10° NW 19:34:58 62° WSW 19:42:32 10° SSE
NOSS 3-4 (C) 4.3 19:28:08 10° NW 19:35:04 62° WSW 19:42:37 10° SSE
Cosmos 1954 Rocket 4.0 19:29:57 10° S 19:35:05 61° ESE 19:40:14 10° NNE
Cosmos 2181 Rocket 4.3 19:29:24 10° SSE 19:35:16 45° E 19:41:05 10° NNE
USA 186 3.5 19:32:29 10° SSW 19:35:29 33° W 19:38:22 10° NNW
STARLINK-1236 4.1 19:31:46 10° NW 19:35:49 53° NNE 19:38:11 23° E
MINOTAUR IV R/B 4.5 19:31:58 10° SSW 19:36:22 67° ESE 19:40:50 10° NNE
STARLINK-67 3.9 19:36:23 10° WNW 19:38:39 27° SW 19:39:24 23° S
Cosmos 2366 rocket 4.3 19:38:47 10° N 19:44:41 46° ENE 19:48:11 23° SE
Cosmos 1076 Rocket 4.2 19:41:04 10° N 19:45:03 36° ENE 19:46:20 29° ESE
STARLINK-1269 3.9 19:41:42 10° WNW 19:45:49 59° NNE 19:47:44 29° E
BREEZE-M DEB (TANK) 4.3 19:41:43 10° SSW 19:45:56 26° SSE 19:45:56 26° SSE
Cosmos 1656 4.5 19:43:37 10° NNW 19:48:53 37° NE 19:51:23 25° E
Cosmos 1763 Rocket 4.2 19:44:42 10° N 19:49:31 37° ENE 19:51:29 27° ESE
STARLINK-1200 3.8 19:46:41 10° WNW 19:50:48 63° NNE 19:52:31 32° E
Cosmos 1455 4.3 19:56:32 15° ENE 19:56:32 15° ENE 19:57:38 10° NE
STARLINK-1234 3.6 19:52:16 10° WNW 19:55:14 42° SW 19:55:47 37° S
STARLINK-1209 3.7 19:52:45 10° WNW 19:55:41 39° SW 19:56:15 35° S
STARLINK-1192 3.7 19:51:39 10° WNW 19:55:47 67° NNE 19:57:18 37° E
STARLINK-1233 3.1 19:53:04 10° WNW 19:56:09 57° SW 19:56:38 49° S
STARLINK-1212 3.1 19:53:32 10° WNW 19:56:37 56° SW 19:57:04 49° S
STARLINK-1105 3.1 19:53:58 10° WNW 19:57:04 56° SW 19:57:31 49° S
STARLINK-1206 3.1 19:54:27 10° WNW 19:57:30 55° SW 19:57:55 49° S
STARLINK-1247 3.1 19:54:55 10° WNW 19:57:58 54° SW 19:58:22 49° S
STARLINK-1227 3.2 19:55:18 10° WNW 19:58:23 54° SW 19:58:47 49° S
Iridium 4 Rocket 3.5 19:54:39 10° NNE 19:58:35 38° E 19:59:06 36° E
STARLINK-1218 3.2 19:55:49 10° WNW 19:58:52 53° SW 19:59:13 49° S
STARLINK-1226 3.2 19:56:15 10° WNW 19:59:19 53° SW 19:59:40 49° S
Cosmos 1980 Rocket 4.0 19:55:55 10° N 19:59:44 18° NE 20:02:02 15° ENE
STARLINK-1254 3.2 19:56:40 10° WNW 19:59:45 52° SW 20:00:06 49° S
USA 234 3.7 19:54:16 10° ENE 20:00:12 36° SE 20:06:07 10° SSW
STARLINK-1215 3.2 19:57:10 10° WNW 20:00:13 52° SW 20:00:32 49° SSW
STARLINK-1231 3.2 19:57:37 10° WNW 20:00:40 51° SW 20:00:58 49° SSW
Cosmos 1174 4.3 19:56:43 10° NNW 20:00:51 62° NE 20:02:39 36° ESE
STARLINK-1244 3.7 19:56:43 10° WNW 20:00:52 71° NNE 20:02:10 41° E
STARLINK-1232 3.2 19:58:32 10° WNW 20:01:35 50° SW 20:01:50 48° SSW
Cosmos 1892 3.2 19:58:16 10° N 20:01:58 40° ENE 20:02:13 39° E
STARLINK-1217 3.3 19:58:59 10° WNW 20:02:01 50° SW 20:02:16 48° SSW
Abrixas rocket 2.6 19:59:21 10° W 20:02:07 42° SSW 20:02:07 42° SSW
STARLINK-1208 3.3 19:59:24 10° WNW 20:02:27 50° SW 20:02:43 48° SSW
STARLINK-1229 3.3 19:59:53 10° WNW 20:02:54 49° SW 20:03:07 48° SSW
STARLINK-1271 3.3 20:00:20 10° WNW 20:03:22 48° SW 20:03:34 47° SSW
H-2A R/B 4.0 19:59:13 10° SSW 20:03:36 27° W 20:07:54 10° NW
STARLINK-1270 3.3 20:00:48 10° WNW 20:03:49 48° SW 20:04:00 47° SSW
STARLINK-1154 3.3 20:01:15 10° WNW 20:04:17 47° SW 20:04:26 47° SSW
ATLAS 5 CENTAUR R/B 2.7 20:00:52 10° WSW 20:04:55 44° NW 20:09:30 10° NNE
STARLINK-1197 3.4 20:02:09 10° WNW 20:05:10 46° SW 20:05:18 46° SSW
STARLINK-1189 3.4 20:02:35 10° WNW 20:05:36 46° SW 20:05:43 46° SSW
STARLINK-1138 3.6 20:01:37 10° WNW 20:05:46 75° NNE 20:06:52 47° ESE
STARLINK-1198 3.4 20:03:03 10° WNW 20:06:04 46° SW 20:06:10 45° SSW
Cosmos 1825 4.0 20:03:40 10° NNE 20:05:39 18° NE 20:05:39 18° NE
STARLINK-1188 3.4 20:03:29 10° WNW 20:06:30 45° SW 20:06:35 45° SSW
ATLAS 2AS CENTAUR R/B 4.0 20:00:06 10° NW 20:06:48 37° WSW 20:13:00 10° S
STARLINK-1235 3.9 20:04:13 10° WNW 20:07:09 35° SW 20:07:18 35° SSW
STARLINK-1187 3.7 20:04:36 10° WNW 20:07:36 39° SW 20:07:42 39° SSW
Cosmos-2242 4.4 20:08:42 23° ENE 20:08:42 23° ENE 20:11:15 10° NNE
STARLINK-1199 3.5 20:05:27 10° WNW 20:08:28 44° SW 20:08:31 44° SW
STARLINK-1191 3.6 20:05:54 10° WNW 20:08:54 43° SW 20:08:56 43° SW
STARLINK-1210 3.6 20:06:21 10° WNW 20:09:22 43° SW 20:09:22 43° SW
STARLINK-1221 3.6 20:06:49 10° WNW 20:09:48 42° SW 20:09:48 42° SW
COSMOS 2455 3.4 20:04:13 10° NW 20:10:05 55° WSW 20:13:57 21° S
STARLINK-1219 3.6 20:07:16 10° WNW 20:10:15 42° SW 20:10:15 42° SW
STARLINK-1222 3.6 20:07:43 10° WNW 20:10:40 42° SW 20:10:40 42° SW
STARLINK-1143 3.6 20:06:35 10° WNW 20:10:45 80° NNE 20:11:39 53° ESE
STARLINK-1211 3.7 20:08:11 10° WNW 20:11:07 41° SW 20:11:07 41° SW
STARLINK-1214 3.7 20:08:37 10° WNW 20:11:33 41° SW 20:11:33 41° SW
STARLINK-1245 3.7 20:09:06 10° WNW 20:11:57 40° SW 20:11:57 40° SW
STARLINK-1238 3.7 20:09:31 10° WNW 20:12:25 40° SW 20:12:25 40° SW
STARLINK-1205 3.8 20:10:28 10° WNW 20:13:16 39° SW 20:13:16 39° SW
STARLINK-1204 3.8 20:10:56 10° WNW 20:13:42 38° SW 20:13:42 38° SW
ERBS 2.2 20:10:56 10° NW 20:14:20 77° NE 20:14:20 77° NE
STARLINK-1241 3.5 20:11:36 10° WNW 20:15:46 85° NNE 20:16:28 60° ESE
STARLINK-29 4.2 20:15:38 10° W 20:18:41 39° NNW 20:19:44 29° NNE
IGS 5A 3.7 20:20:27 48° ENE 20:20:33 48° ENE 20:24:34 10° N
STARLINK-1239 3.4 20:16:34 10° WNW 20:20:44 89° SSW 20:21:14 68° ESE
SAR-Lupe-2 3.4 20:17:42 10° NNE 20:21:14 80° E 20:21:14 80° E
ATLAS CENTAUR R/B 2.7 20:18:47 10° NNW 20:21:58 23° NE 20:22:10 23° NE
Cosmos 1300 3.9 20:18:32 10° SSW 20:22:10 42° WNW 20:25:51 10° N
Spot 2 Rocket 3.4 20:22:15 44° SSE 20:23:52 77° ENE 20:28:59 10° NNW
STARLINK-1240 3.4 20:21:33 10° WNW 20:25:42 84° SSW 20:26:01 75° SE
USA 32 4.3 20:20:43 10° N 20:25:47 47° E 20:26:23 45° E
Cosmos 1850 Rocket 3.8 20:24:22 29° S 20:27:01 70° ESE 20:32:12 10° NNE
Cosmos 841 Rocket 3.9 20:23:43 10° N 20:28:47 44° ENE 20:29:32 42° E
Terra 3.0 20:29:53 28° ENE 20:29:53 28° ENE 20:33:51 10° N
In-Cosmos 22 Rocket 4.4 20:24:02 10° NNW 20:29:53 76° W 20:32:45 31° S
STARLINK-1216 3.5 20:26:31 10° WNW 20:30:40 78° SSW 20:30:47 77° S
Cosmos 2082 Rocket 4.0 20:34:09 15° ENE 20:34:09 15° ENE 20:35:33 10° NE
SPOT 5 3.5 20:31:40 34° ENE 20:31:40 34° ENE 20:35:14 10° N
Meteor 2-10 Rocket 3.7 20:33:52 50° E 20:33:58 50° E 20:39:12 10° NNE
MetOp-B 4.2 20:32:14 39° S 20:34:19 77° WSW 20:39:43 10° NNW
SL-08 R/B 4.4 20:28:36 10° N 20:34:46 74° E 20:36:45 45° SSE
STARLINK-1237 3.6 20:31:29 10° WNW 20:35:33 73° SW 20:35:33 73° SW
Cosmos 1833 Rocket 3.5 20:39:02 34° ENE 20:39:02 34° ENE 20:42:49 10° NE
CARTOSAT-1 4.2 20:39:31 42° NE 20:39:31 42° NE 20:43:10 10° N
STARLINK-1202 3.8 20:36:29 10° WNW 20:40:21 65° WSW 20:40:21 65° WSW
Cosmos 468 Rocket 4.0 20:36:11 10° NNW 20:41:21 71° WSW 20:42:31 52° S
SL-4 R/B 3.1 20:43:29 10° WNW 20:46:33 33° N 20:46:33 33° N
ERS-1 Rocket 2.9 20:47:01 63° E 20:47:15 64° ENE 20:52:14 10° N
Cosmos 1408 3.5 20:44:18 10° N 20:46:55 44° N 20:46:55 44° N
STARLINK-1246 4.2 20:46:27 10° WNW 20:49:54 51° WSW 20:49:54 51° WSW
RESURS DK-1 2.6 20:46:39 10° NNW 20:50:15 63° N 20:50:15 63° N
BREEZE M DEB (TANK) 3.2 20:47:26 10° W 20:53:25 63° NNW 20:53:25 63° NNW
Cosmos 1766 Rocket 4.1 20:49:10 10° N 20:52:50 51° NE 20:52:50 51° NE
Cosmos 1570 Rocket 3.9 20:48:41 10° NNW 20:54:05 85° ENE 20:54:32 75° SE
Okean 3 Rocket 3.8 20:50:42 10° N 20:54:34 63° NNE 20:54:34 63° NNE
STARLINK-1224 4.4 20:51:29 10° WNW 20:54:43 45° WSW 20:54:43 45° WSW
Cosmos 2058 4.0 20:53:00 10° NNW 20:56:50 38° W 20:57:24 36° WSW
Resurs 01 Rocket 3.5 20:55:17 18° SW 20:57:18 25° W 21:00:58 10° NW
COSMOS 2406 3.1 20:54:53 35° SSW 20:57:22 89° WNW 21:03:08 10° NNE
CZ-4C R/B 3.3 20:52:30 10° NW 20:59:22 53° NE 21:01:49 40° E
CZ-2C R/B 4.4 21:00:02 10° N 21:04:29 30° WNW 21:08:58 10° SW
Cosmos 2151 3.5 21:04:09 10° NNW 21:07:34 55° NW 21:07:34 55° NW
Cosmos 1697 Rocket 2.5 21:08:41 10° NNW 21:14:25 88° ENE 21:14:29 87° ESE
Cosmos 2369 3.5 21:08:50 10° NNW 21:14:31 86° ENE 21:14:33 86° E
Cosmos 1455 4.2 21:31:25 28° NW 21:31:25 28° NW 21:33:52 10° N
SPOT 1/Viking Rocket 4.4 21:30:44 42° WSW 21:31:03 43° W 21:36:02 10° NNW
Cosmos 540 Rocket 4.0 21:29:53 10° NNW 21:34:20 55° WNW 21:34:20 55° WNW
SL-16 R/B 3.6 21:31:20 10° N 21:36:10 28° NE 21:36:10 28° NE
Cosmos 2360 Rocket 4.3 21:33:04 10° N 21:36:20 15° NE 21:37:32 15° NE
Cosmos 1825 4.5 21:38:36 10° NNW 21:40:28 23° NW 21:40:28 23° NW
Nadezhda 3 Rocket 4.3 21:41:26 55° WSW 21:42:28 62° WNW 21:48:42 10° N
Cosmos 2322 Rocket 3.6 21:38:24 10° N 21:43:04 26° NE 21:43:04 26° NE
USA 234 3.3 21:37:02 10° NE 21:43:35 78° NW 21:50:07 10° WSW
Cosmos 1980 Rocket 2.4 21:38:57 10° NNW 21:43:48 66° NNW 21:43:48 66° NNW
Cosmos 1535 Rocket 4.4 21:41:06 10° N 21:46:59 81° NNW 21:46:59 81° NNW
ASTEX 1 4.2 21:50:00 48° NNW 21:50:00 48° NNW 21:53:34 10° N
Meteor 2-3 Rocket 4.1 21:50:22 10° NNW 21:55:21 61° NW 21:55:21 61° NW
ATLAS CENTAUR R/B 3.9 21:57:26 10° NW 21:58:21 16° NW 21:58:21 16° NW
Terra 3.4 22:08:45 31° WNW 22:08:45 31° WNW 22:11:51 10° NNW
Mayak 1.0 22:03:29 10° N 22:04:58 21° N 22:04:58 21° N
Cosmos 1934 Rocket 4.4 22:05:46 10° NNW 22:11:27 56° WNW 22:11:27 56° WNW
Cosmos 2082 Rocket 2.9 22:15:56 51° NNW 22:15:56 51° NNW 22:20:29 10° NNE
Cosmos 1833 Rocket 3.9 22:20:38 34° WNW 22:21:33 37° NW 22:26:47 10° NNE
Cosmos 1605 Rocket 4.5 22:24:15 10° NNW 22:29:21 55° NW 22:29:21 55° NW
Cosmos 2219 Rocket 4.4 22:30:12 10° N 22:33:28 15° NE 22:34:42 15° NE
Cosmos 2344 4.4 22:26:39 10° NW 22:36:23 77° SW 22:38:34 64° S
CZ-4C R/B 3.6 22:41:06 10° NW 22:46:59 45° W 22:46:59 45° W
SL-16 R/B 3.7 23:15:05 10° NNW 23:18:02 31° NW 23:18:02 31° NW
Cosmos 2360 Rocket 3.4 23:15:48 10° NNW 23:19:17 38° N 23:19:17 38° N
USA 234 4.3 23:20:07 10° NE 23:26:07 40° NNW 23:32:07 10° W
Cosmos 2322 Rocket 3.7 23:22:01 10° NNW 23:24:52 30° NW 23:24:52 30° NW
Cosmos 2333 Rocket 3.5 23:38:21 10° NNW 23:42:25 37° NNE 23:42:25 37° NNE
Cosmos 2237 Rocket 4.4 23:40:21 10° N 23:44:22 19° NE 23:46:25 16° ENE
SL-16 R/B 4.1 23:48:42 25° ENE 23:49:49 26° ENE 23:54:48 10° N
